Overview Statistics Trail Chart Weather Telemetry Raw packets
 

This is the latest recevied weather packets stored in our database for station/object W4UWO. If no packets are shown the sender has not sent any weather packets the latest 10 day(s).

<< 35 36 37 38 39 40 41 >>
Time Temp. Humidity Pressure Rain* Wind** Luminosity Snow
1788381715 37.78° C 35% 1017.9 hPa 0 mm - 576 W/m² -
1788381412 38.33° C 35% 1018.1 hPa 0 mm - 591 W/m² -
1788381112 38.33° C 36% 1018.2 hPa 0 mm - 601 W/m² -
1788380807 37.78° C 35% 1018.2 hPa 0 mm - 604 W/m² -
1788380503 37.22° C 37% 1018.3 hPa 0 mm - 613 W/m² -
1788380200 37.78° C 37% 1018.2 hPa 0 mm - 636 W/m² -
1788379898 37.78° C 37% 1018.4 hPa 0 mm - 639 W/m² -
1788379593 37.22° C 40% 1018.4 hPa 0 mm - 669 W/m² -
1788379290 37.78° C 38% 1018.4 hPa 0 mm - 698 W/m² -
1788378985 38.33° C 36% 1018.7 hPa 0 mm - 702 W/m² -
1788378685 38.33° C 35% 1018.5 hPa 0 mm - 685 W/m² -
1788378383 38.33° C 35% 1018.6 hPa 0 mm - 699 W/m² -
1788378079 37.78° C 35% 1018.9 hPa 0 mm - 743 W/m² -
1788377775 37.78° C 36% 1018.9 hPa 0 mm - 753 W/m² -
1788377474 37.78° C 36% 1018.9 hPa 0 mm - 759 W/m² -
1788377173 37.78° C 35% 1018.9 hPa 0 mm - 754 W/m² -
1788376872 37.78° C 36% 1018.9 hPa 0 mm - 816 W/m² -
1788376568 37.22° C 38% 1019.3 hPa 0 mm - 795 W/m² -
1788376268 36.67° C 38% 1019.2 hPa 0 mm - 773 W/m² -
1788375963 36.67° C 38% 1019.2 hPa 0 mm - 820 W/m² -
1788375658 36.67° C 39% 1019.3 hPa 0 mm - 805 W/m² -
1788375354 36.67° C 38% 1019.3 hPa 0 mm - 811 W/m² -
1788375050 36.67° C 39% 1019.4 hPa 0 mm - 815 W/m² -
1788374744 36.67° C 41% 1019.3 hPa 0 mm - 808 W/m² -
1788374440 36.67° C 40% 1019.4 hPa 0 mm - 829 W/m² -

* Rain latest hour (hover to see other rain measurements)
** Current wind speed in m/s (hover to see current wind gust speed)